Waarnemingen

Advertentie
Mijn weer
Kleine Brogel, België (6479): temperatuur & dauwpunt: 11.12.2017 01:00:00 - 17.12.2017 01:00:00 (CET)Kleine Brogel, België (6479): windsnelheid & windstoten: 11.12.2017 01:00:00 - 17.12.2017 01:00:00 (CET)Kleine Brogel, België (6479): windrichting: 11.12.2017 01:00:00 - 17.12.2017 01:00:00 (CET)Kleine Brogel, België (6479): luchtdruk: 11.12.2017 01:00:00 - 17.12.2017 01:00:00 (CET)Kleine Brogel, België (6479): zicht: 11.12.2017 01:00:00 - 17.12.2017 01:00:00 (CET)
Datum & Tijd tt [°C] td [°C] ff [km/u] ff [kn] fx [km/u] fx [kn] dd ppp [hPa] vv [km]
17.12.2017 01:00:00 1,5 0,8 11 6 - - WZW 1019,7 12
17.12.2017 00:00:00 1,9 1,4 11 6 18 10 WZW 1019,6 10
16.12.2017 23:00:00 1,8 1,5 11 6 25 14 WZW 1019,1 8
16.12.2017 22:00:00 2,1 1,6 11 6 - - W 1018,7 11
16.12.2017 21:00:00 1,7 1,4 14 8 18 10 WZW 1018,2 14
16.12.2017 20:00:00 1,4 1,0 7 4 18 10 WZW 1017,7 9
16.12.2017 19:00:00 1,8 1,4 7 4 - - W 1017,2 20
16.12.2017 18:00:00 2,5 1,9 11 6 22 12 WZW 1016,2 20
16.12.2017 17:00:00 2,7 1,8 11 6 25 14 W 1015,7 20
16.12.2017 16:00:00 3,6 2,8 11 6 - - W 1014,7 20
16.12.2017 15:00:00 3,9 2,7 11 6 29 16 W 1014,0 20
16.12.2017 14:00:00 4,5 2,4 14 8 25 14 WZW 1013,6 20
16.12.2017 13:00:00 4,8 2,3 14 8 - - W 1013,2 20
16.12.2017 12:00:00 3,9 2,1 11 6 22 12 W 1013,1 20
16.12.2017 11:00:00 2,2 1,3 11 6 14 8 W 1012,6 18
16.12.2017 10:00:00 0,8 0,5 7 4 - - WZW 1011,7 6
16.12.2017 09:00:00 0,2 0,0 7 4 11 6 W 1010,7 5
16.12.2017 08:00:00 -0,1 -0,3 7 4 11 6 WZW 1009,7 3,6
16.12.2017 07:00:00 0,3 0,2 7 4 - - W 1008,7 1,7
16.12.2017 06:00:00 1,0 0,7 7 4 11 6 W 1007,8 2,2
16.12.2017 05:00:00 1,4 1,2 7 4 11 6 W 1007,2 2,0
16.12.2017 04:00:00 0,8 0,8 4 2 - - N 1006,7 2,0
16.12.2017 03:00:00 0,8 0,5 4 2 7 4 N 1006,1 1,4
16.12.2017 02:00:00 2,2 2,0 4 2 7 4 N 1005,2 6
16.12.2017 01:00:00 2,3 2,0 4 2 - - N 1004,6 5
16.12.2017 00:00:00 2,3 2,0 4 2 4 2 N 1004,0 5
15.12.2017 23:00:00 2,2 1,9 4 2 7 4 N 1003,0 6
15.12.2017 22:00:00 2,2 1,8 4 2 - - N 1002,3 5
15.12.2017 21:00:00 1,7 1,6 4 2 4 2 N 1001,5 6
15.12.2017 20:00:00 1,0 0,9 4 2 4 2 N 1000,5 5
15.12.2017 19:00:00 1,3 1,1 4 2 - - N 999,3 13
15.12.2017 18:00:00 2,2 1,0 4 2 11 6 N 998,6 19
15.12.2017 17:00:00 3,2 2,0 4 2 4 2 N 997,8 19
15.12.2017 16:00:00 3,9 2,0 4 2 - - N 997,3 20
15.12.2017 15:00:00 3,7 2,0 4 2 18 10 N 996,5 20
15.12.2017 14:00:00 4,0 1,5 11 6 22 12 ZZW 996,3 20
15.12.2017 13:00:00 3,7 2,2 11 6 - - ZZW 996,1 20
15.12.2017 12:00:00 3,7 2,6 7 4 18 10 ZZW 995,8 15
15.12.2017 11:00:00 3,5 2,6 11 6 18 10 ZW 995,1 8
15.12.2017 10:00:00 3,2 2,6 7 4 - - ZZW 994,2 12
15.12.2017 09:00:00 2,9 2,4 7 4 14 8 ZW 993,9 6
15.12.2017 08:00:00 2,7 2,3 7 4 18 10 ZZW 993,5 12
15.12.2017 07:00:00 2,5 1,9 11 6 - - ZW 993,2 12
15.12.2017 06:00:00 2,7 1,6 14 8 29 16 ZZW 993,0 15
15.12.2017 05:00:00 2,3 1,3 22 12 40 21 ZW 992,9 19
15.12.2017 04:00:00 1,7 0,8 7 4 - - ZZW 992,5 17
15.12.2017 03:00:00 2,3 1,3 14 8 22 12 ZW 992,2 18
15.12.2017 02:00:00 2,0 1,0 11 6 22 12 ZW 991,3 20
15.12.2017 01:00:00 2,2 1,2 14 8 - - WZW 991,2 20
15.12.2017 00:00:00 2,0 1,0 14 8 25 14 WZW 991,0 20
14.12.2017 23:00:00 1,6 0,9 11 6 18 10 ZW 990,7 20
14.12.2017 22:00:00 1,6 0,8 7 4 - - ZW 990,8 20
14.12.2017 21:00:00 2,6 1,6 14 8 22 12 ZZW 990,7 20
14.12.2017 20:00:00 3,2 2,1 11 6 25 14 ZW 991,1 20
14.12.2017 19:00:00 2,9 2,2 7 4 - - ZZW 991,4 18
14.12.2017 18:00:00 2,9 2,0 18 10 32 18 ZW 992,1 20
14.12.2017 17:00:00 3,0 1,1 18 10 40 21 ZW 992,7 20
14.12.2017 16:00:00 4,0 1,5 22 12 - - ZW 993,1 20
14.12.2017 15:00:00 4,0 1,7 22 12 43 23 ZW 993,4 20
14.12.2017 14:00:00 3,9 1,4 29 16 50 27 ZW 993,9 20
14.12.2017 13:00:00 4,4 1,8 29 16 - - ZW 994,3 15
14.12.2017 12:00:00 4,0 1,8 25 14 47 25 ZW 994,4 15
14.12.2017 11:00:00 4,0 1,6 29 16 58 31 ZW 994,8 15
14.12.2017 10:00:00 4,0 1,4 25 14 - - ZW 994,1 15
14.12.2017 09:00:00 3,2 0,5 18 10 36 19 ZW 994,0 15
14.12.2017 08:00:00 3,3 0,6 29 16 47 25 WZW 994,3 12
14.12.2017 07:00:00 2,9 0,8 29 16 - - WZW 993,7 12
14.12.2017 06:00:00 1,1 0,7 29 16 58 31 W 992,5 2,5
14.12.2017 05:00:00 1,7 1,0 36 19 58 31 WZW 990,8 7
14.12.2017 04:00:00 0,4 0,3 7 4 - - WZW 990,3 20
14.12.2017 03:00:00 0,5 0,4 22 12 40 21 WZW 990,4 4,7
14.12.2017 02:00:00 4,0 2,0 11 6 29 16 ZZW 989,9 20
14.12.2017 01:00:00 4,2 2,1 22 12 - - WZW 990,5 20
14.12.2017 00:00:00 4,8 2,5 18 10 43 23 W 990,5 20
13.12.2017 23:00:00 5,3 3,8 25 14 43 23 WZW 990,1 20
13.12.2017 22:00:00 5,0 3,7 22 12 - - WZW 988,8 20
13.12.2017 21:00:00 6,6 6,4 18 10 32 18 ZZW 988,2 9
13.12.2017 20:00:00 6,2 5,8 22 12 40 21 ZZW 990,4 7
13.12.2017 19:00:00 - - - - - - - - -
13.12.2017 18:00:00 - - - - - - - - -
13.12.2017 17:00:00 - - - - - - - - -
13.12.2017 16:00:00 4,5 3,9 16 9 - - ZZW 998,2 5
13.12.2017 15:00:00 4,5 3,6 18 10 43 23 ZZW 998,9 10
13.12.2017 14:00:00 4,4 3,4 29 16 50 27 ZW 999,7 7
13.12.2017 13:00:00 4,4 3,0 29 16 - - ZZW 1000,0 4,5
13.12.2017 12:00:00 3,5 2,8 25 14 50 27 ZZW 1001,1 3,0
13.12.2017 11:00:00 3,3 2,4 22 12 43 23 ZZW 1002,6 3,5
13.12.2017 10:00:00 3,4 2,3 22 12 - - ZZW 1003,7 4,5
13.12.2017 09:00:00 3,2 1,9 18 10 40 21 ZZW 1005,0 4,5
13.12.2017 08:00:00 3,7 1,4 18 10 36 19 ZZW 1006,0 15
13.12.2017 07:00:00 3,2 0,9 14 8 - - ZZW 1007,2 15
13.12.2017 06:00:00 2,5 0,6 14 8 29 16 ZZW 1008,3 15
13.12.2017 05:00:00 1,8 0,3 14 8 25 14 ZZW 1009,7 19
13.12.2017 04:00:00 1,5 -0,1 15 8 - - ZZW 1011,0 10
13.12.2017 03:00:00 1,2 -0,3 11 6 25 14 Z 1012,0 12
13.12.2017 02:00:00 1,0 -0,3 11 6 22 12 Z 1012,5 20
13.12.2017 01:00:00 0,6 -0,3 11 6 - - ZZW 1013,5 17
13.12.2017 00:00:00 0,4 -0,5 7 4 18 10 ZZW 1014,1 12
12.12.2017 23:00:00 0,6 -0,2 11 6 22 12 ZZW 1014,2 11
12.12.2017 22:00:00 0,6 -0,1 11 6 - - ZZW 1014,2 9
12.12.2017 21:00:00 1,0 0,2 7 4 14 8 ZZW 1014,2 7
12.12.2017 20:00:00 1,5 0,6 7 4 14 8 ZZW 1014,0 9
12.12.2017 19:00:00 1,6 0,7 11 6 - - ZW 1013,7 9
12.12.2017 18:00:00 1,6 1,0 11 6 18 10 ZW 1013,1 7
12.12.2017 17:00:00 1,7 1,0 11 6 29 16 WZW 1012,3 3,7
12.12.2017 16:00:00 1,2 0,9 11 6 - - ZW 1011,3 3,7
12.12.2017 15:00:00 1,0 0,6 18 10 29 16 ZW 1010,6 2,0
12.12.2017 14:00:00 1,7 0,6 18 10 29 16 WZW 1010,0 7
12.12.2017 13:00:00 1,7 0,6 14 8 - - ZW 1009,2 15
12.12.2017 12:00:00 1,7 0,7 18 10 29 16 WZW 1008,3 15
12.12.2017 11:00:00 1,5 0,7 11 6 29 16 W 1007,7 10
12.12.2017 10:00:00 1,1 0,6 18 10 - - WZW 1006,5 7
12.12.2017 09:00:00 1,2 0,6 14 8 32 18 WZW 1005,1 7
12.12.2017 08:00:00 0,8 0,5 18 10 32 18 WZW 1003,3 8
12.12.2017 07:00:00 0,8 0,4 18 10 - - WZW 1001,8 4,0
12.12.2017 06:00:00 1,1 0,4 18 10 29 16 W 1000,5 15
12.12.2017 05:00:00 1,0 0,1 14 8 25 14 WZW 998,5 15
12.12.2017 04:00:00 0,8 0,0 14 8 - - WZW 996,3 15
12.12.2017 03:00:00 0,9 0,2 14 8 25 14 W 994,4 15
12.12.2017 02:00:00 0,8 0,0 11 6 25 14 WNW 992,0 20
12.12.2017 01:00:00 0,6 0,0 11 6 - - WNW 989,7 15
12.12.2017 00:00:00 0,3 -0,3 11 6 22 12 WNW 987,3 14
11.12.2017 23:00:00 0,0 -0,3 11 6 22 12 NNW 985,0 9
11.12.2017 22:00:00 -0,2 -0,4 11 6 - - N 982,8 3,1
11.12.2017 21:00:00 0,0 0,0 11 6 22 12 NNW 981,0 3,2
11.12.2017 20:00:00 0,5 0,4 7 4 14 8 NW 979,3 2,3
11.12.2017 19:00:00 0,5 0,4 7 4 - - NNW 977,8 1,6
11.12.2017 18:00:00 0,6 0,6 4 2 14 8 N 976,7 1,6
11.12.2017 17:00:00 0,6 0,6 7 4 22 12 ONO 976,3 2,3
11.12.2017 16:00:00 0,6 0,4 14 8 - - ONO 975,8 2,9
11.12.2017 15:00:00 0,5 0,2 22 12 32 18 O 976,0 4,1
11.12.2017 14:00:00 0,3 0,1 14 8 43 23 O 976,8 4,0
11.12.2017 13:00:00 0,2 0,1 25 14 - - ONO 977,5 4,2
11.12.2017 12:00:00 0,1 0,1 32 18 43 23 NO 979,1 2,9
11.12.2017 11:00:00 -0,1 -0,1 22 12 32 18 ONO 980,5 0,5
11.12.2017 10:00:00 -0,3 -0,3 18 10 - - ONO 981,4 0,8
11.12.2017 09:00:00 -0,3 -0,4 18 10 32 18 ONO 982,1 0,8
11.12.2017 08:00:00 0,4 -1,4 18 10 29 16 O 982,1 10
11.12.2017 07:00:00 0,4 -0,3 18 10 - - O 982,6 8
11.12.2017 06:00:00 0,6 0,0 11 6 18 10 ONO 983,4 7
11.12.2017 05:00:00 0,0 0,0 7 4 14 8 O 984,4 4,1
11.12.2017 04:00:00 -0,7 -0,9 4 2 - - N 985,5 3,5
11.12.2017 03:00:00 -1,2 -1,2 4 2 11 6 N 984,3 4,0
11.12.2017 02:00:00 1,5 0,5 4 2 22 12 - 984,6 10
11.12.2017 01:00:00 2,9 1,3 14 8 - - WZW 984,1 20

tt = temperatuur
td = dauwpunt
ff = windsnelheid
fx = windstoten
dd = windrichting
ppp = luchtdruk
vv = zicht

Weerstations in de omgeving